GAP2924 RPVA-RPLL

Flight info

Callsign GAP2924
Flight time 1h 2m
Altitude 36000
Route MALAG5R MALAG W9 AKDAP AKDAP5R
Aircraft A20N/M-SDE2E3FGHIRWXY/LB1

Departure

Time 2026-04-22 14:03
Airport Daniel Z. Romualdez Airport (RPVA)

Arrival

Time 2026-04-22 15:06
Airport Ninoy Aquino International Airport (RPLL)
Time Latitude Longitude Altitude Speed Heading
2026-04-22 13:40 11.22676 125.02651 18 ft 0 kts 304°
2026-04-22 13:51 11.22676 125.02652 18 ft 0 kts 304°
2026-04-22 13:52 11.22673 125.02657 18 ft 1 kts 304°
2026-04-22 13:52 11.22668 125.02663 18 ft 1 kts 288°
2026-04-22 13:53 11.22669 125.02679 18 ft 2 kts 238°
2026-04-22 13:53 11.22680 125.02689 18 ft 2 kts 195°
2026-04-22 13:53 11.22687 125.02690 18 ft 1 kts 174°
2026-04-22 13:53 11.22692 125.02690 18 ft 0 kts 181°
2026-04-22 13:58 11.22691 125.02690 18 ft 0 kts 181°
2026-04-22 13:58 11.22681 125.02690 18 ft 2 kts 181°
2026-04-22 13:59 11.22659 125.02689 18 ft 3 kts 182°
2026-04-22 13:59 11.22625 125.02687 18 ft 6 kts 184°
2026-04-22 13:59 11.22575 125.02691 17 ft 7 kts 140°
2026-04-22 13:59 11.22552 125.02746 16 ft 9 kts 140°
2026-04-22 14:00 11.22532 125.02755 16 ft 10 kts 169°
2026-04-22 14:00 11.22400 125.02747 15 ft 12 kts 182°
2026-04-22 14:00 11.22311 125.02743 15 ft 13 kts 184°
2026-04-22 14:00 11.22214 125.02736 17 ft 14 kts 185°
2026-04-22 14:01 11.22108 125.02731 18 ft 16 kts 181°
2026-04-22 14:01 11.21988 125.02721 18 ft 18 kts 188°
2026-04-22 14:01 11.21864 125.02727 18 ft 13 kts 154°
2026-04-22 14:01 11.21836 125.02715 18 ft 7 kts 343°
2026-04-22 14:02 11.21852 125.02713 18 ft 0 kts
2026-04-22 14:02 11.21875 125.02715 18 ft 14 kts
2026-04-22 14:02 11.22259 125.02741 16 ft 94 kts
2026-04-22 14:03 11.23152 125.02800 24 ft 156 kts
2026-04-22 14:03 11.24257 125.02875 581 ft 162 kts
2026-04-22 14:03 11.25397 125.02966 1291 ft 165 kts
2026-04-22 14:03 11.26523 125.03034 1990 ft 166 kts
2026-04-22 14:04 11.27734 125.03105 2461 ft 180 kts
2026-04-22 14:04 11.29030 125.03194 2955 ft 194 kts
2026-04-22 14:04 11.30436 125.03291 3414 ft 211 kts
2026-04-22 14:04 11.31949 125.03392 3883 ft 228 kts
2026-04-22 14:05 11.33602 125.03194 4248 ft 255 kts 337°
2026-04-22 14:05 11.35055 125.02104 4807 ft 272 kts 316°
2026-04-22 14:05 11.37818 124.99285 6331 ft 287 kts 315°
2026-04-22 14:06 11.39258 124.97829 7204 ft 290 kts 315°
2026-04-22 14:06 11.40685 124.96401 8047 ft 292 kts 315°
2026-04-22 14:06 11.42139 124.94953 8908 ft 294 kts 315°
2026-04-22 14:06 11.43580 124.93523 9733 ft 296 kts 315°
2026-04-22 14:07 11.45062 124.92053 10512 ft 299 kts 315°
2026-04-22 14:07 11.46596 124.90533 10973 ft 314 kts 315°
2026-04-22 14:07 11.48197 124.88948 11607 ft 321 kts 315°
2026-04-22 14:07 11.49804 124.87357 12364 ft 323 kts 315°
2026-04-22 14:08 11.51410 124.85768 13083 ft 325 kts 315°
2026-04-22 14:08 11.53028 124.84166 13764 ft 328 kts 315°
2026-04-22 14:08 11.54101 124.83104 14190 ft 330 kts 315°
2026-04-22 14:08 11.56314 124.80917 14992 ft 336 kts 317°
2026-04-22 14:09 11.58099 124.79324 15592 ft 340 kts 321°
2026-04-22 14:09 11.60000 124.77868 16182 ft 344 kts 326°
2026-04-22 14:09 11.61985 124.76511 16738 ft 349 kts 327°
2026-04-22 14:09 11.64017 124.75148 17258 ft 353 kts 327°
2026-04-22 14:10 11.66083 124.73766 17797 ft 357 kts 327°
2026-04-22 14:10 11.68175 124.72364 18357 ft 359 kts 327°
2026-04-22 14:10 11.70288 124.70946 18933 ft 362 kts 327°
2026-04-22 14:10 11.72410 124.69518 19491 ft 364 kts 327°
2026-04-22 14:11 11.74495 124.68115 20020 ft 367 kts 327°
2026-04-22 14:11 11.76648 124.66663 20558 ft 369 kts 327°
2026-04-22 14:11 11.78810 124.65205 21102 ft 371 kts 327°
2026-04-22 14:11 11.80840 124.63838 21598 ft 373 kts 327°
2026-04-22 14:12 11.82868 124.62470 22073 ft 375 kts 327°
2026-04-22 14:12 11.85173 124.60916 22610 ft 377 kts 327°
2026-04-22 14:12 11.87349 124.59450 23094 ft 380 kts 327°
2026-04-22 14:12 11.89583 124.57944 23576 ft 383 kts 327°
2026-04-22 14:13 11.91804 124.56445 24055 ft 387 kts 327°
2026-04-22 14:13 11.94057 124.54926 24526 ft 390 kts 327°
2026-04-22 14:13 11.96361 124.53370 24995 ft 393 kts 327°
2026-04-22 14:13 11.98636 124.51834 25444 ft 396 kts 327°
2026-04-22 14:14 12.00972 124.50256 25896 ft 400 kts 327°
2026-04-22 14:14 12.03290 124.48689 26349 ft 402 kts 327°
2026-04-22 14:14 12.05651 124.47094 26807 ft 405 kts 327°
2026-04-22 14:14 12.08005 124.45504 27244 ft 407 kts 326°
2026-04-22 14:15 12.10395 124.43889 27654 ft 410 kts 326°
2026-04-22 14:15 12.12800 124.42273 28057 ft 414 kts 326°
2026-04-22 14:15 12.15213 124.40649 28454 ft 417 kts 326°
2026-04-22 14:15 12.16829 124.39561 28715 ft 419 kts 326°
2026-04-22 14:16 12.20094 124.37356 29248 ft 422 kts 326°
2026-04-22 14:16 12.22553 124.35693 29663 ft 424 kts 326°
2026-04-22 14:16 12.24998 124.34034 30076 ft 426 kts 325°
2026-04-22 14:16 12.27507 124.32320 30492 ft 428 kts 325°
2026-04-22 14:17 12.29976 124.30634 30881 ft 429 kts 325°
2026-04-22 14:17 12.32469 124.28940 31253 ft 432 kts 325°
2026-04-22 14:17 12.34993 124.27227 31611 ft 434 kts 325°
2026-04-22 14:17 12.37495 124.25480 31992 ft 435 kts 323°
2026-04-22 14:18 12.39912 124.23631 32482 ft 433 kts 321°
2026-04-22 14:18 12.42296 124.21773 33025 ft 430 kts 321°
2026-04-22 14:18 12.44672 124.19916 33561 ft 428 kts 321°
2026-04-22 14:18 12.47037 124.18067 34073 ft 426 kts 321°
2026-04-22 14:19 12.49401 124.16220 34528 ft 425 kts 321°
2026-04-22 14:19 12.51751 124.14382 34890 ft 425 kts 321°
2026-04-22 14:19 12.54089 124.12555 35203 ft 427 kts 321°
2026-04-22 14:19 12.56464 124.10697 35502 ft 428 kts 321°
2026-04-22 14:20 12.61247 124.06958 35903 ft 431 kts 320°
2026-04-22 14:20 12.65963 124.03269 35917 ft 431 kts 320°
2026-04-22 14:21 12.73129 123.97659 35938 ft 431 kts 320°
2026-04-22 14:22 12.80254 123.92080 35931 ft 431 kts 320°
2026-04-22 14:23 12.87411 123.86471 35929 ft 431 kts 320°
2026-04-22 14:23 12.92168 123.82744 35932 ft 431 kts 320°
2026-04-22 14:24 12.96936 123.79006 35929 ft 431 kts 320°
2026-04-22 14:24 13.01721 123.75251 35930 ft 432 kts 320°
2026-04-22 14:25 13.06496 123.71500 35932 ft 432 kts 320°
2026-04-22 14:25 13.11266 123.67738 35933 ft 431 kts 319°
2026-04-22 14:26 13.15869 123.63812 35935 ft 431 kts 317°
2026-04-22 14:26 13.20472 123.59821 35930 ft 431 kts 317°
2026-04-22 14:27 13.25059 123.55840 35926 ft 431 kts 317°
2026-04-22 14:27 13.29652 123.51849 35922 ft 431 kts 317°
2026-04-22 14:28 13.34240 123.47860 35925 ft 431 kts 317°
2026-04-22 14:28 13.38823 123.43872 35933 ft 431 kts 318°
2026-04-22 14:29 13.43412 123.39877 35931 ft 431 kts 317°
2026-04-22 14:29 13.47973 123.35902 35934 ft 431 kts 317°
2026-04-22 14:30 13.52527 123.31873 35930 ft 430 kts 315°
2026-04-22 14:30 13.56632 123.27432 35925 ft 427 kts 308°
2026-04-22 14:31 13.60113 123.22476 35915 ft 426 kts 300°
2026-04-22 14:31 13.62919 123.17143 35911 ft 425 kts 295°
2026-04-22 14:32 13.65511 123.11691 35912 ft 425 kts 295°
2026-04-22 14:32 13.68120 123.06205 35909 ft 426 kts 295°
2026-04-22 14:33 13.70728 123.00730 35910 ft 426 kts 295°
2026-04-22 14:33 13.73337 122.95256 35910 ft 426 kts 295°
2026-04-22 14:34 13.75960 122.89753 35911 ft 426 kts 295°
2026-04-22 14:34 13.78559 122.84294 35912 ft 426 kts 295°
2026-04-22 14:35 13.81166 122.78814 35915 ft 426 kts 295°
2026-04-22 14:35 13.83779 122.73315 35922 ft 426 kts 295°
2026-04-22 14:36 13.86390 122.67815 35925 ft 426 kts 295°
2026-04-22 14:36 13.88987 122.62341 35925 ft 426 kts 295°
2026-04-22 14:37 13.91589 122.56853 35851 ft 427 kts 295°
2026-04-22 14:37 13.92885 122.54121 35546 ft 425 kts 295°
2026-04-22 14:37 13.94186 122.51376 34825 ft 427 kts 295°
2026-04-22 14:37 13.95503 122.48595 33596 ft 438 kts 296°
2026-04-22 14:38 13.96849 122.45750 32435 ft 447 kts 296°
2026-04-22 14:38 13.98216 122.42863 31462 ft 451 kts 296°
2026-04-22 14:38 13.99579 122.39988 30781 ft 448 kts 296°
2026-04-22 14:38 14.00941 122.37109 30137 ft 445 kts 296°
2026-04-22 14:39 14.02289 122.34261 29608 ft 439 kts 295°
2026-04-22 14:39 14.03611 122.31451 29121 ft 433 kts 295°
2026-04-22 14:39 14.04923 122.28660 28647 ft 427 kts 295°
2026-04-22 14:40 14.07049 122.24142 27877 ft 417 kts 295°
2026-04-22 14:40 14.08722 122.20592 27269 ft 409 kts 296°
2026-04-22 14:40 14.09965 122.17956 26808 ft 405 kts 296°
2026-04-22 14:40 14.11170 122.15417 26354 ft 400 kts 296°
2026-04-22 14:41 14.12395 122.12852 25903 ft 396 kts 296°
2026-04-22 14:41 14.13595 122.10326 25453 ft 392 kts 296°
2026-04-22 14:41 14.14789 122.07803 25008 ft 389 kts 296°
2026-04-22 14:41 14.15970 122.05300 24582 ft 385 kts 296°
2026-04-22 14:42 14.17141 122.02814 24163 ft 381 kts 296°
2026-04-22 14:42 14.18288 122.00375 23752 ft 377 kts 296°
2026-04-22 14:42 14.19425 121.97957 23362 ft 374 kts 296°
2026-04-22 14:42 14.20465 121.95489 23120 ft 374 kts 290°
2026-04-22 14:43 14.21294 121.92974 22879 ft 373 kts 288°
2026-04-22 14:43 14.22096 121.90411 22635 ft 371 kts 288°
2026-04-22 14:43 14.22883 121.87910 22230 ft 370 kts 288°
2026-04-22 14:43 14.23695 121.85365 21443 ft 378 kts 288°
2026-04-22 14:44 14.24527 121.82788 20740 ft 382 kts 288°
2026-04-22 14:44 14.25372 121.80187 20177 ft 382 kts 288°
2026-04-22 14:44 14.26217 121.77599 19669 ft 380 kts 288°
2026-04-22 14:44 14.27063 121.75013 19139 ft 378 kts 288°
2026-04-22 14:45 14.27893 121.72473 18616 ft 377 kts 288°
2026-04-22 14:45 14.28732 121.69909 18083 ft 376 kts 288°
2026-04-22 14:45 14.29570 121.67345 17542 ft 375 kts 289°
2026-04-22 14:45 14.30393 121.64829 17045 ft 373 kts 289°
2026-04-22 14:46 14.31220 121.62302 16562 ft 371 kts 289°
2026-04-22 14:46 14.32053 121.59757 16086 ft 368 kts 289°
2026-04-22 14:46 14.32859 121.57292 15626 ft 365 kts 289°
2026-04-22 14:46 14.33668 121.54817 15147 ft 363 kts 289°
2026-04-22 14:47 14.34477 121.52349 14669 ft 360 kts 289°
2026-04-22 14:47 14.35266 121.49937 14200 ft 357 kts 289°
2026-04-22 14:47 14.36054 121.47524 13698 ft 356 kts 289°
2026-04-22 14:47 14.36846 121.45099 13216 ft 354 kts 289°
2026-04-22 14:48 14.37631 121.42697 12967 ft 344 kts 289°
2026-04-22 14:48 14.38382 121.40391 12931 ft 332 kts 289°
2026-04-22 14:48 14.39109 121.38165 12641 ft 330 kts 289°
2026-04-22 14:48 14.39844 121.35910 11879 ft 339 kts 289°
2026-04-22 14:49 14.40600 121.33581 11228 ft 344 kts 289°
2026-04-22 14:49 14.41353 121.31252 10749 ft 343 kts 289°
2026-04-22 14:49 14.42109 121.28917 10294 ft 339 kts 289°
2026-04-22 14:49 14.42848 121.26636 10030 ft 330 kts 290°
2026-04-22 14:50 14.43555 121.24451 9988 ft 313 kts 290°
2026-04-22 14:50 14.44224 121.22387 9981 ft 304 kts 290°
2026-04-22 14:50 14.44899 121.20310 9987 ft 305 kts 290°
2026-04-22 14:50 14.45572 121.18244 9963 ft 304 kts 290°
2026-04-22 14:51 14.46084 121.16103 9977 ft 306 kts 274°
2026-04-22 14:51 14.45772 121.13946 10003 ft 306 kts 248°
2026-04-22 14:51 14.44812 121.12002 9954 ft 302 kts 239°
2026-04-22 14:51 14.43715 121.10143 9552 ft 303 kts 237°
2026-04-22 14:52 14.42593 121.08296 9138 ft 304 kts 237°
2026-04-22 14:52 14.41456 121.06438 8746 ft 302 kts 237°
2026-04-22 14:52 14.40348 121.04635 8375 ft 299 kts 237°
2026-04-22 14:52 14.39226 121.02811 8022 ft 297 kts 237°
2026-04-22 14:53 14.38125 121.01032 7680 ft 294 kts 237°
2026-04-22 14:53 14.37021 120.99262 7318 ft 292 kts 237°
2026-04-22 14:53 14.35922 120.97508 6917 ft 290 kts 237°
2026-04-22 14:53 14.34832 120.95778 6577 ft 288 kts 237°
2026-04-22 14:54 14.33732 120.94047 6239 ft 287 kts 237°
2026-04-22 14:54 14.32648 120.92354 5861 ft 286 kts 237°
2026-04-22 14:54 14.31546 120.90629 5482 ft 285 kts 237°
2026-04-22 14:54 14.30465 120.88925 5123 ft 283 kts 237°
2026-04-22 14:55 14.29397 120.87228 5041 ft 282 kts 237°
2026-04-22 14:55 14.28349 120.85558 5029 ft 283 kts 237°
2026-04-22 14:55 14.27268 120.83820 5030 ft 283 kts 239°
2026-04-22 14:55 14.26491 120.81950 5033 ft 283 kts 253°
2026-04-22 14:56 14.25976 120.79980 5031 ft 283 kts 257°
2026-04-22 14:56 14.25510 120.77994 5028 ft 284 kts 257°
2026-04-22 14:56 14.25246 120.76018 4984 ft 281 kts 275°
2026-04-22 14:56 14.25506 120.74709 4822 ft 276 kts 293°
2026-04-22 14:57 14.26966 120.72595 4261 ft 273 kts 315°
2026-04-22 14:57 14.28441 120.71363 3826 ft 270 kts 338°
2026-04-22 14:57 14.30238 120.70975 3456 ft 261 kts
2026-04-22 14:57 14.31981 120.71439 3128 ft 255 kts 24°
2026-04-22 14:58 14.33590 120.72221 3017 ft 250 kts 36°
2026-04-22 14:58 14.34827 120.73357 3010 ft 232 kts 52°
2026-04-22 14:58 14.35725 120.74678 3006 ft 216 kts 60°
2026-04-22 14:58 14.36471 120.75971 2998 ft 201 kts 62°
2026-04-22 14:59 14.37143 120.77187 2994 ft 187 kts 62°
2026-04-22 14:59 14.37733 120.78264 3064 ft 172 kts 62°
2026-04-22 14:59 14.38293 120.79286 3003 ft 156 kts 61°
2026-04-22 14:59 14.38786 120.80183 2977 ft 140 kts 62°
2026-04-22 15:00 14.39264 120.81055 3007 ft 140 kts 62°
2026-04-22 15:00 14.39752 120.81938 3016 ft 140 kts 61°
2026-04-22 15:00 14.40232 120.82808 3014 ft 139 kts 61°
2026-04-22 15:00 14.40704 120.83659 3010 ft 139 kts 61°
2026-04-22 15:01 14.41187 120.84530 3005 ft 139 kts 61°
2026-04-22 15:01 14.41664 120.85390 3000 ft 139 kts 61°
2026-04-22 15:01 14.42156 120.86273 2898 ft 140 kts 62°
2026-04-22 15:01 14.42638 120.87141 2715 ft 139 kts 62°
2026-04-22 15:02 14.43118 120.88001 2538 ft 139 kts 62°
2026-04-22 15:02 14.43596 120.88862 2357 ft 139 kts 62°
2026-04-22 15:02 14.44070 120.89716 2184 ft 140 kts 61°
2026-04-22 15:02 14.44544 120.90572 2007 ft 139 kts 61°
2026-04-22 15:03 14.45029 120.91445 1830 ft 139 kts 61°
2026-04-22 15:03 14.45506 120.92303 1651 ft 139 kts 62°
2026-04-22 15:03 14.45983 120.93163 1500 ft 140 kts 62°
2026-04-22 15:03 14.46451 120.94006 1320 ft 141 kts 62°
2026-04-22 15:04 14.46912 120.94836 1143 ft 135 kts 62°
2026-04-22 15:04 14.47361 120.95648 970 ft 132 kts 60°
2026-04-22 15:04 14.47818 120.96467 801 ft 132 kts 63°
2026-04-22 15:04 14.48274 120.97286 641 ft 131 kts 62°
2026-04-22 15:05 14.48728 120.98106 481 ft 131 kts 60°
2026-04-22 15:05 14.49182 120.98909 287 ft 131 kts 61°
2026-04-22 15:05 14.49635 120.99724 136 ft 129 kts 62°
2026-04-22 15:05 14.50062 121.00500 35 ft 119 kts 63°
2026-04-22 15:06 14.50289 121.00920 37 ft 84 kts 60°
2026-04-22 15:06 14.50506 121.01316 42 ft 30 kts 59°
2026-04-22 15:06 14.50605 121.01492 47 ft 26 kts 60°
2026-04-22 15:06 14.50701 121.01644 49 ft 24 kts 50°
2026-04-22 15:07 14.50810 121.01753 50 ft 19 kts 39°
2026-04-22 15:07 14.50896 121.01777 52 ft 12 kts 309°
2026-04-22 15:07 14.50878 121.01695 52 ft 13 kts 241°
2026-04-22 15:07 14.50830 121.01605 52 ft 14 kts 238°
2026-04-22 15:08 14.50779 121.01517 52 ft 14 kts 239°
2026-04-22 15:08 14.50730 121.01429 49 ft 2 kts 239°
2026-04-22 15:08 14.50730 121.01428 49 ft 0 kts 239°
2026-04-22 15:09 14.50726 121.01422 49 ft 0 kts 239°
2026-04-22 15:09 14.50725 121.01421 49 ft 0 kts 239°
2026-04-22 15:09 14.50725 121.01420 49 ft 0 kts 239°
2026-04-22 15:10 14.50724 121.01418 49 ft 1 kts 239°
2026-04-22 15:10 14.50717 121.01406 49 ft 3 kts 240°
2026-04-22 15:10 14.50702 121.01379 48 ft 5 kts 240°
2026-04-22 15:10 14.50690 121.01339 48 ft 6 kts 286°
2026-04-22 15:11 14.50727 121.01309 48 ft 7 kts
2026-04-22 15:11 14.50765 121.01338 49 ft 6 kts 63°
2026-04-22 15:11 14.50775 121.01359 50 ft 0 kts 62°
2026-04-22 15:11 14.50778 121.01363 50 ft 1 kts 62°
2026-04-22 15:12 14.50785 121.01379 50 ft 4 kts 61°
2026-04-22 15:12 14.50800 121.01405 51 ft 3 kts 59°
2026-04-22 15:12 14.50813 121.01405 51 ft 3 kts 345°
2026-04-22 15:12 14.50848 121.01390 52 ft 7 kts 328°
2026-04-22 15:13 14.50882 121.01369 52 ft 0 kts 333°